| time (UTC) | temp F | wind direction | speed knots | gust knots | rain 1hr in | rain 24hr in | rain mn in | humidity % | barometer mb |
| 20260506033704 | 42 | 314 | 0.0 | 0.9 | 0.00 | 0.15 | 0.00 | 97 | 1007.5 |
| 20260506033205 | 42 | 314 | 0.0 | 0.0 | 0.00 | 0.15 | 0.00 | 97 | 1007.5 |
| 20260506032205 | 42 | 314 | 0.0 | 0.0 | 0.00 | 0.15 | 0.00 | 96 | 1007.5 |
| 20260506031705 | 42 | 314 | 0.0 | 1.7 | 0.00 | 0.15 | 0.00 | 97 | 1007.4 |
| 20260506031205 | 42 | 314 | 0.0 | 1.7 | 0.00 | 0.15 | 0.00 | 97 | 1007.4 |
| 20260506030205 | 42 | 314 | 0.0 | 1.7 | 0.00 | 0.15 | 0.00 | 97 | 1007.5 |
| 20260506025705 | 42 | 314 | 0.0 | 1.7 | 0.00 | 0.15 | 0.00 | 97 | 1007.6 |
| 20260506025206 | 42 | 314 | 0.0 | 1.7 | 0.00 | 0.15 | 0.00 | 97 | 1007.8 |
| 20260506024705 | 42 | 314 | 0.0 | 0.9 | 0.00 | 0.15 | 0.00 | 97 | 1007.8 |
| 20260506024205 | 42 | 314 | 0.0 | 0.9 | 0.00 | 0.15 | 0.00 | 97 | 1007.8 |
| 20260506023726 | 42 | 314 | 0.0 | 0.9 | 0.00 | 0.15 | 0.00 | 97 | 1007.8 |
| 20260506023205 | 42 | 314 | 0.0 | 1.7 | 0.00 | 0.15 | 0.00 | 97 | 1007.9 |
| 20260506022206 | 42 | 314 | 0.0 | 1.7 | 0.00 | 0.15 | 0.00 | 96 | 1008.1 |
| 20260506021705 | 43 | 314 | 0.9 | 1.7 | 0.00 | 0.15 | 0.00 | 96 | 1008.1 |
| 20260506021205 | 43 | 314 | 0.0 | 1.7 | 0.00 | 0.15 | 0.00 | 97 | 1008.1 |
| 20260506020705 | 43 | 314 | 0.0 | 0.0 | 0.00 | 0.15 | 0.00 | 97 | 1008.1 |
| 20260506020205 | 43 | 314 | 0.0 | 0.0 | 0.00 | 0.15 | 0.00 | 97 | 1008.0 |
| 20260506015705 | 43 | 314 | 0.0 | 1.7 | 0.00 | 0.15 | 0.00 | 97 | 1008.1 |
| 20260506015205 | 43 | 314 | 0.0 | 1.7 | 0.00 | 0.15 | 0.00 | 97 | 1008.1 |
| 20260506014706 | 43 | 314 | 0.0 | 0.9 | 0.00 | 0.15 | 0.00 | 97 | 1008.2 |
| 20260506013705 | 43 | 314 | 0.0 | 1.7 | 0.00 | 0.15 | 0.00 | 97 | 1008.2 |
| 20260506013205 | 43 | 314 | 0.0 | 1.7 | 0.00 | 0.15 | 0.00 | 97 | 1008.3 |
| 20260506012705 | 43 | 314 | 0.0 | 2.6 | 0.00 | 0.15 | 0.00 | 97 | 1008.4 |
| 20260506012205 | 43 | 314 | 0.9 | 2.6 | 0.00 | 0.15 | 0.00 | 97 | 1008.4 |
| 20260506011705 | 43 | 314 | 0.9 | 2.6 | 0.00 | 0.15 | 0.00 | 97 | 1008.6 |
| 20260506011205 | 43 | 314 | 0.0 | 1.7 | 0.00 | 0.15 | 0.00 | 97 | 1008.6 |
| 20260506010706 | 43 | 306 | 0.0 | 0.9 | 0.00 | 0.15 | 0.00 | 97 | 1008.9 |
| 20260506010205 | 43 | 306 | 0.0 | 1.7 | 0.00 | 0.15 | 0.00 | 97 | 1008.8 |
| 20260506005706 | 43 | 306 | 0.0 | 1.7 | 0.00 | 0.15 | 0.00 | 97 | 1008.4 |
| 20260506005206 | 43 | 306 | 0.0 | 1.7 | 0.00 | 0.15 | 0.00 | 97 | 1008.6 |
| 20260506004705 | 43 | 306 | 0.0 | 0.0 | 0.00 | 0.15 | 0.00 | 97 | 1008.7 |
| 20260506004205 | 42 | 306 | 0.0 | 0.0 | 0.00 | 0.15 | 0.00 | 96 | 1008.8 |
| 20260506003705 | 42 | 306 | 0.0 | 0.0 | 0.00 | 0.15 | 0.00 | 96 | 1008.7 |
| 20260506002705 | 42 | 306 | 0.0 | 0.0 | 0.00 | 0.15 | 0.00 | 96 | 1008.8 |
| 20260506002206 | 42 | 306 | 0.0 | 0.0 | 0.00 | 0.15 | 0.00 | 96 | 1008.7 |
| 20260506001705 | 42 | 306 | 0.0 | 0.0 | 0.00 | 0.15 | 0.00 | 96 | 1008.8 |
| 20260506000705 | 42 | 306 | 0.0 | 0.9 | 0.00 | 0.15 | 0.00 | 96 | 1009.0 |
| 20260506000205 | 43 | 306 | 0.0 | 0.9 | 0.00 | 0.15 | 0.00 | 96 | 1009.0 |
| 20260505235705 | 43 | 306 | 0.0 | 1.7 | 0.00 | 0.15 | 0.00 | 96 | 1009.0 |
| 20260505235204 | 43 | 306 | 0.0 | 1.7 | 0.00 | 0.15 | 0.00 | 96 | 1009.0 |
| 20260505234732 | 43 | 306 | 0.0 | 1.7 | 0.00 | 0.15 | 0.00 | 96 | 1009.1 |
| 20260505234205 | 43 | 306 | 0.0 | 0.0 | 0.00 | 0.15 | 0.00 | 96 | 1009.2 |
| 20260505233704 | 43 | 306 | 0.0 | 0.0 | 0.00 | 0.15 | 0.00 | 96 | 1009.2 |
| 20260505232722 | 43 | 306 | 0.0 | 0.0 | 0.00 | 0.15 | 0.00 | 95 | 1009.3 |
| 20260505231705 | 43 | 306 | 0.0 | 0.0 | 0.00 | 0.15 | 0.00 | 95 | 1009.3 |
| 20260505231205 | 43 | 306 | 0.0 | 0.0 | 0.00 | 0.15 | 0.00 | 95 | 1009.3 |
| 20260505230705 | 43 | 306 | 0.0 | 0.9 | 0.00 | 0.15 | 0.00 | 95 | 1009.4 |
| 20260505230205 | 43 | 306 | 0.0 | 1.7 | 0.00 | 0.15 | 0.00 | 95 | 1009.5 |
| 20260505225705 | 43 | 306 | 0.0 | 1.7 | 0.00 | 0.15 | 0.00 | 95 | 1009.5 |
| 20260505225205 | 43 | 306 | 0.0 | 1.7 | 0.00 | 0.15 | 0.00 | 95 | 1009.4 |
| 20260505224705 | 44 | 306 | 0.0 | 1.7 | 0.00 | 0.15 | 0.00 | 95 | 1009.4 |
| 20260505224205 | 44 | 306 | 0.0 | 0.9 | 0.00 | 0.15 | 0.00 | 95 | 1009.5 |
| 20260505223705 | 44 | 306 | 0.0 | 0.9 | 0.00 | 0.15 | 0.00 | 95 | 1009.5 |
| 20260505223205 | 44 | 306 | 0.0 | 0.9 | 0.00 | 0.15 | 0.00 | 95 | 1009.5 |
| 20260505222706 | 44 | 306 | 0.0 | 0.0 | 0.00 | 0.15 | 0.00 | 94 | 1009.4 |
| 20260505222205 | 44 | 306 | 0.0 | 0.0 | 0.00 | 0.15 | 0.00 | 94 | 1009.4 |
| 20260505221704 | 44 | 306 | 0.0 | 1.7 | 0.00 | 0.15 | 0.00 | 94 | 1009.3 |
| 20260505215705 | 45 | 274 | 0.0 | 3.5 | 0.00 | 0.15 | 0.15 | 94 | 1009.4 |
| 20260505215205 | 46 | 61 | 0.9 | 3.5 | 0.00 | 0.15 | 0.15 | 94 | 1009.4 |
| 20260505214717 | 46 | 41 | 0.9 | 2.6 | 0.00 | 0.15 | 0.15 | 94 | 1009.5 |
| 20260505214205 | 46 | 68 | 0.0 | 0.0 | 0.00 | 0.15 | 0.15 | 94 | 1009.5 |
| 20260505213205 | 46 | 143 | 0.0 | 0.9 | 0.01 | 0.15 | 0.15 | 94 | 1009.6 |
| 20260505212708 | 47 | 143 | 0.0 | 0.9 | 0.01 | 0.15 | 0.15 | 94 | 1009.6 |
| 20260505212205 | 47 | 143 | 0.0 | 0.9 | 0.01 | 0.15 | 0.15 | 94 | 1009.6 |
| 20260505211705 | 47 | 143 | 0.0 | 0.9 | 0.01 | 0.15 | 0.15 | 94 | 1009.6 |
| 20260505211205 | 47 | 205 | 0.0 | 3.5 | 0.01 | 0.15 | 0.15 | 94 | 1009.7 |
| 20260505210205 | 47 | 205 | 1.7 | 3.5 | 0.01 | 0.15 | 0.15 | 94 | 1009.6 |
| 20260505205205 | 47 | 259 | 0.9 | 3.5 | 0.01 | 0.15 | 0.15 | 94 | 1009.7 |
| 20260505204706 | 47 | 217 | 0.9 | 4.3 | 0.01 | 0.15 | 0.15 | 94 | 1009.6 |
| 20260505204205 | 47 | 218 | 0.9 | 4.3 | 0.00 | 0.14 | 0.14 | 94 | 1009.6 |
| 20260505203705 | 47 | 231 | 1.7 | 4.3 | 0.00 | 0.14 | 0.14 | 93 | 1009.6 |
| 20260505203205 | 47 | 250 | 1.7 | 4.3 | 0.00 | 0.14 | 0.14 | 93 | 1009.6 |
| 20260505202705 | 47 | 234 | 1.7 | 4.3 | 0.00 | 0.14 | 0.14 | 93 | 1009.5 |
| 20260505202205 | 48 | 239 | 0.9 | 5.2 | 0.00 | 0.14 | 0.14 | 93 | 1009.5 |
| 20260505201705 | 48 | 163 | 0.9 | 5.2 | 0.00 | 0.14 | 0.14 | 93 | 1009.5 |
| 20260505201205 | 48 | 158 | 0.9 | 5.2 | 0.00 | 0.14 | 0.14 | 93 | 1009.3 |
| 20260505200705 | 48 | 233 | 0.0 | 2.6 | 0.00 | 0.14 | 0.14 | 92 | 1009.2 |
| 20260505200205 | 48 | 276 | 0.9 | 2.6 | 0.00 | 0.14 | 0.14 | 92 | 1009.1 |
| 20260505195205 | 49 | 223 | 0.0 | 2.6 | 0.00 | 0.14 | 0.14 | 92 | 1009.1 |
| 20260505194705 | 49 | 223 | 0.9 | 3.5 | 0.00 | 0.14 | 0.14 | 92 | 1009.0 |
| 20260505194205 | 49 | 223 | 0.9 | 3.5 | 0.00 | 0.14 | 0.14 | 91 | 1009.1 |
| 20260505193205 | 49 | 209 | 0.9 | 2.6 | 0.02 | 0.14 | 0.14 | 91 | 1009.1 |
| 20260505192705 | 49 | 231 | 0.9 | 2.6 | 0.02 | 0.14 | 0.14 | 91 | 1009.1 |
| 20260505192205 | 49 | 228 | 0.9 | 2.6 | 0.02 | 0.14 | 0.14 | 91 | 1009.1 |
| 20260505191705 | 49 | 227 | 0.9 | 2.6 | 0.03 | 0.14 | 0.14 | 91 | 1008.9 |
| 20260505190705 | 50 | 224 | 0.9 | 5.2 | 0.06 | 0.14 | 0.14 | 91 | 1008.8 |
| 20260505185705 | 50 | 220 | 1.7 | 5.2 | 0.06 | 0.14 | 0.14 | 91 | 1008.8 |
| 20260505185205 | 50 | 253 | 1.7 | 5.2 | 0.06 | 0.14 | 0.14 | 91 | 1008.8 |
| 20260505184706 | 51 | 202 | 1.7 | 4.3 | 0.06 | 0.14 | 0.14 | 91 | 1008.9 |
| 20260505184205 | 51 | 179 | 1.7 | 6.1 | 0.05 | 0.13 | 0.13 | 90 | 1008.8 |
| 20260505183705 | 51 | 188 | 1.7 | 6.1 | 0.04 | 0.13 | 0.13 | 89 | 1009.0 |
| 20260505183205 | 51 | 195 | 2.6 | 6.1 | 0.04 | 0.13 | 0.13 | 89 | 1009.2 |
| 20260505182706 | 52 | 209 | 2.6 | 8.7 | 0.03 | 0.12 | 0.12 | 88 | 1009.2 |
| 20260505181205 | 53 | 237 | 3.5 | 7.0 | 0.00 | 0.09 | 0.09 | 86 | 1009.1 |
| 20260505180706 | 53 | 233 | 3.5 | 7.0 | 0.00 | 0.09 | 0.09 | 84 | 1008.8 |
| 20260505180205 | 53 | 222 | 3.5 | 7.0 | 0.00 | 0.09 | 0.09 | 83 | 1008.7 |
| 20260505175705 | 54 | 217 | 3.5 | 7.0 | 0.00 | 0.09 | 0.09 | 83 | 1008.7 |
| 20260505175205 | 54 | 272 | 3.5 | 8.7 | 0.00 | 0.09 | 0.09 | 83 | 1008.7 |
| 20260505174205 | 54 | 315 | 3.5 | 8.7 | 0.00 | 0.09 | 0.09 | 83 | 1008.7 |
| 20260505173705 | 54 | 269 | 2.6 | 6.1 | 0.00 | 0.09 | 0.09 | 82 | 1008.6 |
| 20260505173205 | 55 | 294 | 2.6 | 4.3 | 0.00 | 0.09 | 0.09 | 82 | 1008.6 |
| 20260505172705 | 55 | 298 | 2.6 | 5.2 | 0.00 | 0.09 | 0.09 | 82 | 1008.6 |
| 20260505172205 | 55 | 262 | 2.6 | 5.2 | 0.00 | 0.09 | 0.09 | 82 | 1008.6 |
| 20260505171705 | 55 | 291 | 2.6 | 5.2 | 0.00 | 0.09 | 0.09 | 81 | 1008.6 |
| 20260505171204 | 55 | 279 | 1.7 | 5.2 | 0.00 | 0.09 | 0.09 | 80 | 1008.4 |
| 20260505170705 | 56 | 248 | 2.6 | 7.0 | 0.00 | 0.09 | 0.09 | 82 | 1008.6 |
| 20260505170205 | 56 | 258 | 3.5 | 7.0 | 0.00 | 0.09 | 0.09 | 79 | 1008.4 |
| 20260505165205 | 57 | 224 | 0.9 | 4.3 | 0.00 | 0.09 | 0.09 | 82 | 1008.6 |
| 20260505164705 | 57 | 265 | 0.9 | 5.2 | 0.00 | 0.09 | 0.09 | 83 | 1008.4 |
| 20260505164205 | 56 | 219 | 0.9 | 7.0 | 0.00 | 0.09 | 0.09 | 83 | 1008.4 |
| 20260505163705 | 56 | 239 | 1.7 | 7.0 | 0.00 | 0.09 | 0.09 | 85 | 1008.6 |
| 20260505162705 | 54 | 273 | 0.9 | 5.2 | 0.00 | 0.09 | 0.09 | 88 | 1008.6 |
| 20260505162205 | 54 | 191 | 1.7 | 5.2 | 0.00 | 0.09 | 0.09 | 87 | 1008.6 |
| 20260505161734 | 54 | 220 | 1.7 | 3.5 | 0.00 | 0.09 | 0.09 | 86 | 1008.6 |
| 20260505161205 | 54 | 243 | 0.9 | 3.5 | 0.01 | 0.09 | 0.09 | 86 | 1008.6 |
| 20260505160205 | 54 | 1 | 0.9 | 2.6 | 0.08 | 0.09 | 0.09 | 88 | 1008.4 |
| 20260505153205 | 52 | 182 | 1.7 | 5.2 | 0.08 | 0.09 | 0.09 | 91 | 1008.7 |
| 20260505152705 | 52 | 213 | 1.7 | 5.2 | 0.08 | 0.09 | 0.09 | 90 | 1008.8 |
| 20260505151730 | 53 | 224 | 1.7 | 9.6 | 0.08 | 0.09 | 0.09 | 85 | 1008.6 |
| 20260505151205 | 54 | 176 | 3.5 | 10.4 | 0.06 | 0.08 | 0.07 | 83 | 1008.4 |
| 20260505150705 | 56 | 194 | 5.2 | 10.4 | 0.02 | 0.03 | 0.02 | 81 | 1008.8 |
| 20260505140205 | 60 | 206 | 1.7 | 4.3 | 0.00 | 0.02 | 0.01 | 70 | 1007.9 |
| 20260505124205 | 57 | 111 | 0.9 | 4.3 | 0.00 | 0.02 | 0.01 | 81 | 1008.6 |
| 20260505123705 | 57 | 92 | 0.9 | 2.6 | 0.00 | 0.02 | 0.01 | 80 | 1008.7 |
| 20260505123205 | 57 | 113 | 0.0 | 2.6 | 0.00 | 0.02 | 0.01 | 82 | 1008.7 |
| 20260505122227 | 57 | 111 | 0.0 | 3.5 | 0.00 | 0.02 | 0.01 | 84 | 1008.7 |
| 20260505121705 | 56 | 94 | 0.9 | 3.5 | 0.00 | 0.02 | 0.01 | 85 | 1008.8 |
| 20260505120705 | 56 | 67 | 0.9 | 3.5 | 0.00 | 0.02 | 0.01 | 83 | 1008.8 |
| 20260505120205 | 56 | 120 | 0.9 | 4.3 | 0.00 | 0.02 | 0.01 | 83 | 1008.9 |
| 20260505115705 | 56 | 73 | 0.9 | 4.3 | 0.00 | 0.02 | 0.01 | 83 | 1008.9 |
| 20260505115205 | 56 | 74 | 0.9 | 4.3 | 0.00 | 0.02 | 0.01 | 81 | 1008.9 |
| 20260505114706 | 56 | 108 | 0.9 | 3.5 | 0.00 | 0.02 | 0.01 | 81 | 1009.0 |
| 20260505114205 | 56 | 90 | 0.9 | 2.6 | 0.00 | 0.02 | 0.01 | 84 | 1009.0 |
| 20260505113705 | 56 | 188 | 0.0 | 2.6 | 0.00 | 0.02 | 0.01 | 81 | 1009.0 |
| 20260505113205 | 56 | 113 | 0.0 | 5.2 | 0.00 | 0.02 | 0.01 | 82 | 1009.1 |
| 20260505112705 | 56 | 131 | 0.0 | 5.2 | 0.00 | 0.02 | 0.01 | 81 | 1009.1 |
| 20260505112205 | 56 | 130 | 1.7 | 7.0 | 0.00 | 0.02 | 0.01 | 81 | 1009.1 |
| 20260505111205 | 56 | 68 | 3.5 | 7.0 | 0.00 | 0.02 | 0.01 | 82 | 1009.1 |
| 20260505110705 | 56 | 51 | 2.6 | 6.1 | 0.00 | 0.02 | 0.01 | 81 | 1009.0 |
| 20260505110205 | 56 | 44 | 2.6 | 6.1 | 0.00 | 0.02 | 0.01 | 82 | 1009.0 |
| 20260505102205 | 56 | 73 | 1.7 | 7.0 | 0.00 | 0.02 | 0.01 | 83 | 1009.1 |
| 20260505101705 | 56 | 89 | 2.6 | 6.1 | 0.00 | 0.02 | 0.01 | 82 | 1009.1 |
| 20260505100705 | 56 | 78 | 1.7 | 5.2 | 0.00 | 0.02 | 0.01 | 83 | 1009.2 |
| 20260505100205 | 56 | 87 | 0.9 | 2.6 | 0.00 | 0.02 | 0.01 | 83 | 1009.2 |
| 20260505095705 | 56 | 153 | 0.9 | 2.6 | 0.00 | 0.02 | 0.01 | 84 | 1009.2 |
| 20260505095205 | 55 | 56 | 0.0 | 3.5 | 0.00 | 0.02 | 0.01 | 84 | 1009.2 |
| 20260505094705 | 55 | 70 | 0.9 | 3.5 | 0.00 | 0.02 | 0.01 | 85 | 1009.2 |
| 20260505093705 | 55 | 314 | 0.9 | 2.6 | 0.00 | 0.02 | 0.01 | 84 | 1009.2 |
| 20260505093205 | 55 | 314 | 0.9 | 2.6 | 0.00 | 0.02 | 0.01 | 86 | 1009.3 |
| 20260505092705 | 55 | 311 | 0.9 | 2.6 | 0.00 | 0.02 | 0.01 | 86 | 1009.3 |
| 20260505092205 | 54 | 286 | 0.9 | 2.6 | 0.00 | 0.02 | 0.01 | 84 | 1009.3 |
| 20260505091705 | 54 | 278 | 1.7 | 3.5 | 0.00 | 0.02 | 0.01 | 84 | 1009.4 |
| 20260505090705 | 54 | 279 | 1.7 | 4.3 | 0.00 | 0.02 | 0.01 | 84 | 1009.5 |
| 20260505090205 | 54 | 265 | 1.7 | 4.3 | 0.00 | 0.02 | 0.01 | 83 | 1009.5 |
| 20260505085705 | 55 | 265 | 1.7 | 4.3 | 0.00 | 0.02 | 0.01 | 83 | 1009.4 |
| 20260505085205 | 55 | 264 | 1.7 | 4.3 | 0.00 | 0.02 | 0.01 | 84 | 1009.5 |
| 20260505084705 | 55 | 293 | 0.9 | 0.0 | 0.00 | 0.02 | 0.01 | 85 | 1009.5 |
| 20260505083205 | 55 | 153 | 0.0 | 1.7 | 0.00 | 0.02 | 0.01 | 87 | 1009.6 |
| 20260505082705 | 54 | 146 | 0.0 | 0.9 | 0.00 | 0.02 | 0.01 | 88 | 1009.6 |
| 20260505082205 | 54 | 98 | 0.0 | 1.7 | 0.00 | 0.02 | 0.01 | 86 | 1009.6 |
| 20260505081705 | 54 | 98 | 0.0 | 1.7 | 0.00 | 0.02 | 0.01 | 86 | 1009.6 |
| 20260505081205 | 53 | 98 | 0.0 | 1.7 | 0.00 | 0.02 | 0.01 | 88 | 1009.6 |
| 20260505080706 | 53 | 98 | 0.0 | 0.9 | 0.00 | 0.02 | 0.01 | 88 | 1009.6 |
| 20260505080205 | 53 | 98 | 0.0 | 0.9 | 0.00 | 0.02 | 0.01 | 88 | 1009.7 |
| 20260505075705 | 53 | 98 | 0.0 | 0.9 | 0.00 | 0.02 | 0.01 | 87 | 1009.9 |
| 20260505074705 | 52 | 98 | 0.0 | 0.9 | 0.00 | 0.02 | 0.01 | 88 | 1009.9 |
| 20260505074205 | 52 | 98 | 0.0 | 0.0 | 0.00 | 0.02 | 0.01 | 89 | 1009.9 |
| 20260505073704 | 52 | 98 | 0.0 | 0.9 | 0.00 | 0.02 | 0.01 | 90 | 1009.9 |
| 20260505073205 | 52 | 98 | 0.0 | 0.9 | 0.00 | 0.02 | 0.01 | 90 | 1010.0 |
| 20260505072705 | 51 | 98 | 0.0 | 0.9 | 0.00 | 0.02 | 0.01 | 90 | 1010.0 |
| 20260505071705 | 51 | 98 | 0.0 | 0.9 | 0.01 | 0.02 | 0.01 | 92 | 1010.1 |
| 20260505071205 | 51 | 98 | 0.0 | 0.9 | 0.01 | 0.02 | 0.01 | 92 | 1010.1 |
| 20260505070706 | 50 | 98 | 0.0 | 0.9 | 0.01 | 0.02 | 0.01 | 92 | 1010.1 |
| 20260505070205 | 50 | 98 | 0.0 | 0.9 | 0.01 | 0.02 | 0.01 | 92 | 1010.2 |
| 20260505065705 | 50 | 98 | 0.0 | 0.9 | 0.01 | 0.02 | 0.01 | 93 | 1010.2 |
| 20260505065205 | 49 | 98 | 0.0 | 0.0 | 0.01 | 0.02 | 0.01 | 93 | 1010.3 |
| 20260505063205 | 49 | 98 | 0.0 | 0.9 | 0.01 | 0.02 | 0.01 | 95 | 1010.3 |
| 20260505062706 | 49 | 99 | 0.0 | 1.7 | 0.01 | 0.02 | 0.01 | 95 | 1010.3 |
| 20260505062205 | 48 | 99 | 0.0 | 1.7 | 0.01 | 0.02 | 0.01 | 96 | 1010.4 |
| 20260505061205 | 48 | 314 | 0.0 | 0.9 | 0.00 | 0.01 | 0.00 | 96 | 1010.3 |
| 20260505060705 | 48 | 314 | 0.0 | 0.9 | 0.00 | 0.01 | 0.00 | 96 | 1010.3 |
| 20260505060205 | 48 | 314 | 0.0 | 0.9 | 0.00 | 0.01 | 0.00 | 96 | 1010.4 |
| 20260505055705 | 47 | 314 | 0.0 | 0.0 | 0.00 | 0.01 | 0.00 | 96 | 1010.5 |
| 20260505055205 | 47 | 314 | 0.0 | 0.0 | 0.00 | 0.01 | 0.00 | 97 | 1010.5 |
| 20260505054704 | 47 | 314 | 0.0 | 0.0 | 0.00 | 0.01 | 0.00 | 97 | 1010.5 |
| 20260505053705 | 47 | 314 | 0.0 | 0.0 | 0.00 | 0.01 | 0.00 | 96 | 1010.5 |
| 20260505053205 | 47 | 314 | 0.0 | 0.0 | 0.00 | 0.01 | 0.00 | 96 | 1010.4 |
| 20260505052705 | 47 | 314 | 0.0 | 0.0 | 0.00 | 0.01 | 0.00 | 96 | 1010.4 |
| 20260505052205 | 47 | 314 | 0.0 | 0.0 | 0.00 | 0.01 | 0.00 | 97 | 1010.4 |
| 20260505051705 | 46 | 314 | 0.0 | 0.0 | 0.00 | 0.01 | 0.00 | 97 | 1010.4 |
| 20260505051205 | 46 | 314 | 0.0 | 0.0 | 0.00 | 0.01 | 0.00 | 97 | 1010.4 |
| 20260505050705 | 46 | 314 | 0.0 | 0.0 | 0.00 | 0.01 | 0.00 | 97 | 1010.4 |
| 20260505041705 | 45 | 314 | 0.0 | 0.0 | 0.00 | 0.01 | 0.00 | 96 | 1010.5 |
| 20260505041205 | 45 | 314 | 0.0 | 0.0 | 0.00 | 0.01 | 0.00 | 96 | 1010.6 |
| 20260505040705 | 45 | 314 | 0.0 | 0.0 | 0.00 | 0.01 | 0.00 | 96 | 1010.6 |
| 20260505040205 | 45 | 314 | 0.0 | 0.0 | 0.00 | 0.01 | 0.00 | 96 | 1010.6 |
| 20260505035705 | 45 | 314 | 0.0 | 0.0 | 0.00 | 0.01 | 0.00 | 96 | 1010.5 |
| 20260505035205 | 45 | 314 | 0.0 | 0.9 | 0.00 | 0.01 | 0.00 | 96 | 1010.5 |
| 20260505034705 | 45 | 314 | 0.0 | 0.9 | 0.00 | 0.01 | 0.00 | 96 | 1010.6 |
| 20260505034205 | 45 | 314 | 0.0 | 0.9 | 0.00 | 0.01 | 0.00 | 96 | 1010.5 |